User: anonymous   Login
Location: Caltech
(34.1382°N, 118.1253°W)
Time: 13:28:10
(UTC-07:00)
Language:

Iridium 21 - Orbit

View from above orbital plane
View from above orbital plane
View from above satellite
View from above satellite

Ground track
Ground track

The orbit data is extracted from the following two-line orbital elements,

1 25778U 99032B   16240.39318817  .00000156  00000-0  48719-4 0  9990
2 25778  86.4003 346.7901 0002200  92.1492 267.9956 14.34217353906005
Epoch (UTC): 27 August 2016 09:26:11
Eccentricity: 0.0002200
inclination: 86.4003°
perigee height: 776 km
apogee height: 779 km
right ascension of ascending node: 346.7901°
argument of perigee: 92.1492°
revolutions per day: 14.34217353
mean anomaly at epoch: 267.9956°
orbit number at epoch: 90600

The dashed part of the orbit path shows where the satellite is in the earth's shadow,  

DLR